This is the latest recevied weather packets stored in our database for station/object N8HON. If no packets are shown the sender has not sent any weather packets the latest 10 day(s).
| Time | Temp. | Humidity | Pressure | Rain* | Wind** | Luminosity | Snow |
|---|---|---|---|---|---|---|---|
| 1777685202 | 11.11° C | 67% | 1011.5 hPa | 0 mm | - | 0 W/m² | - |
| 1777684900 | 11.11° C | 66% | 1011.2 hPa | 0 mm | - | 0 W/m² | - |
| 1777684596 | 11.11° C | 64% | 1010.9 hPa | 0 mm | - | 0 W/m² | - |
| 1777684292 | 11.11° C | 64% | 1010.8 hPa | 0 mm | - | 0 W/m² | - |
| 1777683990 | 11.11° C | 64% | 1011 hPa | 0 mm | - | 0 W/m² | - |
| 1777683686 | 11.67° C | 62% | 1010.7 hPa | 0 mm | - | 0 W/m² | - |
| 1777683384 | 11.67° C | 61% | 1010.8 hPa | 0 mm | - | 0 W/m² | - |
| 1777683081 | 11.67° C | 60% | 1010.5 hPa | 0 mm | - | 0 W/m² | - |
| 1777682776 | 11.67° C | 62% | 1010 hPa | 0 mm | - | 0 W/m² | - |
| 1777682474 | 11.67° C | 59% | 1010.1 hPa | 0 mm | - | 0 W/m² | - |
| 1777682172 | 12.22° C | 59% | 1010.1 hPa | 0 mm | - | 0 W/m² | - |
| 1777681868 | 12.22° C | 56% | 1010.1 hPa | 0 mm | - | 0 W/m² | - |
| 1777681564 | 12.22° C | 56% | 1009.8 hPa | 0 mm | - | 0 W/m² | - |
| 1777681262 | 12.78° C | 55% | 1009.4 hPa | 0 mm | - | 0 W/m² | - |
| 1777680960 | 12.78° C | 54% | 1009.5 hPa | 0 mm | - | 0 W/m² | - |
| 1777680656 | 12.78° C | 52% | 1009.3 hPa | 0 mm | - | 0 W/m² | - |
| 1777680355 | 13.33° C | 50% | 1009 hPa | 0 mm | - | 2 W/m² | - |
| 1777680052 | 13.33° C | 51% | 1009.2 hPa | 0 mm | - | 5 W/m² | - |
| 1777679747 | 13.33° C | 47% | 1009 hPa | 0 mm | - | 8 W/m² | - |
| 1777679443 | 13.89° C | 48% | 1008.5 hPa | 0 mm | - | 9 W/m² | - |
| 1777679139 | 13.89° C | 47% | 1008.5 hPa | 0 mm | - | 10 W/m² | - |
| 1777678838 | 13.89° C | 47% | 1008.5 hPa | 0 mm | - | 10 W/m² | - |
| 1777678535 | 13.89° C | 45% | 1008.5 hPa | 0 mm | - | 17 W/m² | - |
| 1777678232 | 14.44° C | 45% | 1008.6 hPa | 0 mm | - | 26 W/m² | - |
| 1777677928 | 14.44° C | 43% | 1008.5 hPa | 0 mm | - | 27 W/m² | - |
* Rain latest hour (hover to see other rain measurements)
** Current wind speed in m/s (hover to see current wind gust speed)